Time,TemperatureF,DewpointF,PressureIn,WindDirection,WindDirectionDegrees,WindSpeedMPH,WindSpeedGustMPH,Humidity,HourlyPrecipIn,Conditions,Clouds,dailyrainin,SolarRadiationWatts/m^2,SoftwareType,DateUTC
2014-01-18 01:01:00,42.0,37.0,-100.00,SSW,200,2.0,8.0,82,-99.99,,,0.00,0.000000,,2014-01-18 09:01:00,
2014-01-18 01:43:00,42.0,37.0,-100.00,SSW,200,2.0,8.0,82,-99.99,,,0.00,0.000000,,2014-01-18 09:43:00,
2014-01-18 01:53:00,42.0,37.0,-100.00,SSW,200,2.0,8.0,82,-99.99,,,0.00,0.000000,,2014-01-18 09:53:00,
2014-01-18 02:01:00,42.0,34.0,-100.00,South,184,3.0,6.0,73,0.00,,,0.00,0.000000,,2014-01-18 10:01:00,
2014-01-18 02:42:00,42.0,34.0,-100.00,South,184,3.0,6.0,73,0.00,,,0.00,0.000000,,2014-01-18 10:42:00,
2014-01-18 02:53:00,42.0,34.0,-100.00,South,184,3.0,6.0,73,0.00,,,0.00,0.000000,,2014-01-18 10:53:00,
2014-01-18 13:43:00,63.0,41.0,-100.00,North,-999,0.0,5.0,44,-99.99,,,0.00,427.000000,,2014-01-18 21:43:00,
2014-01-18 14:01:00,57.0,41.0,-100.00,North,-999,0.0,4.0,54,0.00,,,0.00,290.000000,,2014-01-18 22:01:00,
2014-01-18 14:43:00,57.0,41.0,-100.00,North,-999,0.0,4.0,54,0.00,,,0.00,290.000000,,2014-01-18 22:43:00,
2014-01-18 14:53:00,57.0,41.0,-100.00,North,-999,0.0,4.0,54,0.00,,,0.00,290.000000,,2014-01-18 22:53:00,
2014-01-18 15:01:00,54.0,40.0,-100.00,NE,44,3.0,4.0,58,0.00,,,0.00,68.000000,,2014-01-18 23:01:00,
2014-01-18 15:42:00,54.0,40.0,-100.00,NE,44,3.0,4.0,58,0.00,,,0.00,68.000000,,2014-01-18 23:42:00,
2014-01-18 15:53:00,54.0,40.0,-100.00,NE,44,3.0,4.0,58,0.00,,,0.00,68.000000,,2014-01-18 23:53:00,
2014-01-18 16:01:00,53.0,41.0,-100.00,NNE,30,6.0,7.0,63,0.00,,,0.00,133.000000,,2014-01-19 00:01:00,
2014-01-18 16:22:00,53.0,41.0,-100.00,NNE,30,6.0,7.0,63,0.00,,,0.00,133.000000,,2014-01-19 00:22:00,
2014-01-18 16:32:00,53.0,41.0,-100.00,NNE,30,6.0,7.0,63,0.00,,,0.00,133.000000,,2014-01-19 00:32:00,
2014-01-18 16:42:00,53.0,41.0,-100.00,NNE,30,6.0,7.0,63,0.00,,,0.00,133.000000,,2014-01-19 00:42:00,
2014-01-18 16:52:00,53.0,41.0,-100.00,NNE,30,6.0,7.0,63,0.00,,,0.00,133.000000,,2014-01-19 00:52:00,
2014-01-18 17:01:00,52.0,33.0,-100.00,NE,37,5.0,9.0,48,0.00,,,0.00,32.000000,,2014-01-19 01:01:00,
2014-01-18 17:42:00,52.0,33.0,-100.00,NE,37,5.0,9.0,48,0.00,,,0.00,32.000000,,2014-01-19 01:42:00,
2014-01-18 17:52:00,52.0,33.0,-100.00,NE,37,5.0,9.0,48,0.00,,,0.00,32.000000,,2014-01-19 01:52:00,
2014-01-18 18:01:00,53.0,27.0,-100.00,NE,42,5.0,9.0,37,0.00,,,0.00,0.000000,,2014-01-19 02:01:00,
2014-01-18 18:42:00,53.0,27.0,-100.00,NE,42,5.0,9.0,37,0.00,,,0.00,0.000000,,2014-01-19 02:42:00,
2014-01-18 18:52:00,53.0,27.0,-100.00,NE,42,5.0,9.0,37,0.00,,,0.00,0.000000,,2014-01-19 02:52:00,
2014-01-18 19:01:00,-999.0,-99.9,-100.00,ENE,65,5.0,12.0,-999,0.00,,,0.00,0.000000,,2014-01-19 03:01:00,